Location: Proctor
(47.8934°N, 114.3048°W)
Time: 05:55:47
(UTC+00:00)

ISS - Pass Details

Date: 27 May 2024
Orbit: 409 x 421 km, 51.6° (Epoch: 13 June)

Event Time Altitude Azimuth Distance (km) Brightness Sun altitude
Rises 04:50:40 0° 286° (WNW) 2,373 1.0 -11.6°
Reaches altitude 10° 04:53:16 10° 265° (W) 1,502 -0.5 -11.9°
Maximum altitude 04:55:32 17° 223° (SW) 1,143 -1.7 -12.1°
Enters shadow 04:57:14 12° 188° (S) 1,349 -1.6 -12.3°
